| time (UTC) | temp C | wind direction | speed KPH | gust KPH | rain 1hr cm | rain 24hr cm | rain mn cm | humidity % | barometer mb |
| 20260503210915 | 18 | 203 | 1.6 | 3.2 | 0.00 | 0.00 | 0.00 | 58 | 1013.3 |
| 20260503205935 | 18 | 248 | 1.6 | 4.8 | 0.00 | 0.00 | 0.00 | 58 | 1013.3 |
| 20260503204915 | 18 | 203 | 3.2 | 6.4 | 0.00 | 0.00 | 0.00 | 56 | 1013.2 |
| 20260503203915 | 18 | 225 | 1.6 | 3.2 | 0.00 | 0.00 | 0.00 | 56 | 1013.3 |
| 20260503202915 | 18 | 270 | 1.6 | 4.8 | 0.00 | 0.00 | 0.00 | 57 | 1013.6 |
| 20260503201915 | 18 | 248 | 1.6 | 6.4 | 0.00 | 0.00 | 0.00 | 56 | 1013.5 |
| 20260503200915 | 18 | 180 | 1.6 | 3.2 | 0.00 | 0.00 | 0.00 | 58 | 1013.5 |
| 20260503195915 | 18 | 225 | 1.6 | 4.8 | 0.00 | 0.00 | 0.00 | 57 | 1013.6 |
| 20260503194915 | 18 | 270 | 6.4 | 11.3 | 0.00 | 0.00 | 0.00 | 56 | 1013.4 |
| 20260503193915 | 18 | 225 | 4.8 | 8.0 | 0.00 | 0.00 | 0.00 | 57 | 1013.5 |
| 20260503192916 | 18 | 203 | 3.2 | 8.0 | 0.00 | 0.00 | 0.00 | 55 | 1013.5 |
| 20260503191915 | 18 | 135 | 4.8 | 11.3 | 0.00 | 0.00 | 0.00 | 54 | 1013.6 |
| 20260503190915 | 18 | 270 | 1.6 | 3.2 | 0.00 | 0.00 | 0.00 | 57 | 1013.7 |
| 20260503185915 | 17 | 270 | 1.6 | 3.2 | 0.00 | 0.00 | 0.00 | 59 | 1013.8 |
| 20260503184915 | 17 | 0.0 | 0.0 | 0.00 | 0.00 | 0.00 | 60 | 1013.8 | |
| 20260503183915 | 17 | 270 | 1.6 | 3.2 | 0.00 | 0.00 | 0.00 | 61 | 1013.8 |
| 20260503182935 | 16 | 203 | 1.6 | 4.8 | 0.00 | 0.00 | 0.00 | 63 | 1013.9 |
| 20260503181915 | 16 | 180 | 3.2 | 6.4 | 0.00 | 0.00 | 0.00 | 63 | 1013.9 |
| 20260503180915 | 16 | 0.0 | 3.2 | 0.00 | 0.00 | 0.00 | 66 | 1013.8 | |
| 20260503175915 | 16 | 203 | 1.6 | 3.2 | 0.00 | 0.00 | 0.00 | 68 | 1013.9 |
| 20260503174915 | 15 | 180 | 3.2 | 6.4 | 0.00 | 0.00 | 0.00 | 70 | 1013.9 |
| 20260503173915 | 15 | 203 | 1.6 | 4.8 | 0.00 | 0.00 | 0.00 | 70 | 1013.9 |
| 20260503172915 | 15 | 248 | 3.2 | 6.4 | 0.00 | 0.00 | 0.00 | 69 | 1013.9 |
| 20260503171915 | 15 | 248 | 1.6 | 3.2 | 0.00 | 0.00 | 0.00 | 68 | 1013.9 |
| 20260503170915 | 16 | 270 | 1.6 | 4.8 | 0.00 | 0.00 | 0.00 | 68 | 1013.9 |
| 20260503150917 | 13 | 180 | 1.6 | 4.8 | 0.00 | 0.00 | 0.00 | 74 | 1013.3 |
| 20260503130916 | 12 | 270 | 1.6 | 3.2 | 0.00 | 0.00 | 0.00 | 78 | 1012.0 |
| 20260503080916 | 13 | 0.0 | 1.6 | 0.00 | 0.00 | 0.00 | 77 | 1012.6 | |
| 20260503072936 | 13 | 0.0 | 0.0 | 0.00 | 0.00 | 0.00 | 77 | 1012.6 | |
| 20260503071916 | 13 | 0.0 | 0.0 | 0.00 | 0.00 | 0.00 | 77 | 1012.7 | |
| 20260503070916 | 13 | 0.0 | 1.6 | 0.00 | 0.00 | 0.00 | 76 | 1012.6 | |
| 20260503054916 | 13 | 0.0 | 1.6 | 0.00 | 0.00 | 0.00 | 75 | 1012.8 | |
| 20260503053916 | 13 | 293 | 1.6 | 3.2 | 0.00 | 0.00 | 0.00 | 75 | 1012.9 |
| 20260503052916 | 13 | 315 | 1.6 | 3.2 | 0.00 | 0.00 | 0.00 | 75 | 1012.8 |
| 20260503051916 | 13 | 0.0 | 1.6 | 0.00 | 0.00 | 0.00 | 75 | 1013.0 | |
| 20260503050916 | 13 | 315 | 1.6 | 4.8 | 0.00 | 0.00 | 0.00 | 74 | 1012.9 |
| 20260503045916 | 13 | 315 | 1.6 | 3.2 | 0.00 | 0.00 | 0.00 | 74 | 1012.8 |
| 20260503044916 | 13 | 0.0 | 1.6 | 0.00 | 0.00 | 0.00 | 74 | 1012.7 | |
| 20260503043936 | 13 | 315 | 3.2 | 11.3 | 0.00 | 0.00 | 0.00 | 74 | 1012.6 |
| 20260503042916 | 13 | 0.0 | 1.6 | 0.00 | 0.00 | 0.00 | 74 | 1012.7 | |
| 20260503041916 | 13 | 338 | 1.6 | 6.4 | 0.00 | 0.00 | 0.00 | 74 | 1012.6 |
| 20260503040917 | 13 | 0.0 | 1.6 | 0.00 | 0.00 | 0.00 | 74 | 1012.5 | |
| 20260503035921 | 14 | 23 | 1.6 | 4.8 | 0.00 | 0.00 | 0.00 | 73 | 1012.4 |
| 20260503034936 | 14 | 0 | 1.6 | 3.2 | 0.00 | 0.00 | 0.00 | 73 | 1012.3 |
| 20260503033916 | 14 | 0 | 1.6 | 4.8 | 0.00 | 0.00 | 0.00 | 72 | 1012.3 |
| 20260503032916 | 14 | 0 | 3.2 | 6.4 | 0.00 | 0.00 | 0.00 | 71 | 1012.1 |
| 20260503031916 | 14 | 338 | 4.8 | 8.0 | 0.00 | 0.00 | 0.00 | 71 | 1012.1 |
| 20260503030916 | 15 | 315 | 1.6 | 3.2 | 0.00 | 0.00 | 0.00 | 70 | 1011.9 |
| 20260503025916 | 15 | 0 | 3.2 | 4.8 | 0.00 | 0.00 | 0.00 | 70 | 1011.9 |
| 20260503024936 | 15 | 45 | 6.4 | 12.9 | 0.00 | 0.00 | 0.00 | 69 | 1011.8 |
| 20260503023916 | 15 | 23 | 6.4 | 11.3 | 0.00 | 0.00 | 0.00 | 69 | 1011.8 |
| 20260503022916 | 15 | 0 | 6.4 | 9.7 | 0.00 | 0.00 | 0.00 | 68 | 1011.6 |
| 20260503021916 | 16 | 23 | 6.4 | 11.3 | 0.00 | 0.00 | 0.00 | 68 | 1011.5 |
| 20260503020936 | 16 | 45 | 1.6 | 4.8 | 0.00 | 0.00 | 0.00 | 68 | 1011.6 |
| 20260503015936 | 16 | 315 | 4.8 | 9.7 | 0.00 | 0.00 | 0.00 | 68 | 1011.5 |
| 20260503014916 | 16 | 23 | 3.2 | 6.4 | 0.00 | 0.00 | 0.00 | 68 | 1011.6 |
| 20260503013916 | 16 | 23 | 1.6 | 6.4 | 0.00 | 0.00 | 0.00 | 68 | 1011.5 |
| 20260503012916 | 17 | 23 | 6.4 | 14.5 | 0.00 | 0.00 | 0.00 | 67 | 1011.6 |
| 20260503011916 | 17 | 0 | 3.2 | 9.7 | 0.00 | 0.00 | 0.00 | 66 | 1011.5 |
| 20260503010916 | 17 | 0 | 4.8 | 8.0 | 0.00 | 0.00 | 0.00 | 66 | 1011.6 |
| 20260503005915 | 17 | 0 | 4.8 | 8.0 | 0.00 | 0.00 | 0.00 | 65 | 1011.5 |
| 20260503004936 | 18 | 23 | 8.0 | 11.3 | 0.00 | 0.00 | 0.00 | 65 | 1011.4 |
| 20260503003916 | 18 | 23 | 3.2 | 8.0 | 0.00 | 0.00 | 0.00 | 64 | 1011.5 |
| 20260503002915 | 18 | 23 | 4.8 | 11.3 | 0.00 | 0.00 | 0.00 | 64 | 1011.6 |
| 20260503001935 | 18 | 23 | 6.4 | 14.5 | 0.00 | 0.00 | 0.00 | 62 | 1011.6 |
| 20260503000915 | 19 | 338 | 3.2 | 8.0 | 0.00 | 0.00 | 0.00 | 61 | 1011.6 |
| 20260502235916 | 20 | 23 | 6.4 | 12.9 | 0.00 | 0.00 | 0.00 | 59 | 1011.7 |
| 20260502234916 | 20 | 0 | 6.4 | 16.1 | 0.00 | 0.00 | 0.00 | 59 | 1011.7 |
| 20260502233916 | 20 | 315 | 3.2 | 8.0 | 0.00 | 0.00 | 0.00 | 61 | 1011.6 |
| 20260502232915 | 20 | 0 | 3.2 | 8.0 | 0.00 | 0.00 | 0.00 | 60 | 1011.9 |
| 20260502231915 | 20 | 23 | 6.4 | 9.7 | 0.00 | 0.00 | 0.00 | 60 | 1011.9 |
| 20260502230916 | 20 | 338 | 3.2 | 6.4 | 0.00 | 0.00 | 0.00 | 59 | 1011.9 |
| 20260502225916 | 20 | 0 | 3.2 | 6.4 | 0.00 | 0.00 | 0.00 | 60 | 1012.2 |
| 20260502224915 | 20 | 0 | 4.8 | 11.3 | 0.00 | 0.00 | 0.00 | 60 | 1012.2 |
| 20260502223916 | 20 | 23 | 4.8 | 12.9 | 0.00 | 0.00 | 0.00 | 59 | 1012.4 |
| 20260502222915 | 21 | 45 | 6.4 | 11.3 | 0.00 | 0.00 | 0.00 | 58 | 1012.6 |
| 20260502221915 | 21 | 23 | 6.4 | 11.3 | 0.00 | 0.00 | 0.00 | 58 | 1012.8 |
| 20260502220918 | 21 | 23 | 3.2 | 4.8 | 0.00 | 0.00 | 0.00 | 57 | 1013.0 |
| 20260502215917 | 21 | 0 | 4.8 | 9.7 | 0.00 | 0.00 | 0.00 | 59 | 1013.1 |
| 20260502214915 | 21 | 23 | 6.4 | 11.3 | 0.00 | 0.00 | 0.00 | 59 | 1013.1 |
| 20260502213915 | 21 | 23 | 4.8 | 14.5 | 0.00 | 0.00 | 0.00 | 61 | 1013.2 |
| 20260502212915 | 20 | 315 | 4.8 | 9.7 | 0.00 | 0.00 | 0.00 | 61 | 1013.3 |
| 20260502211915 | 20 | 45 | 3.2 | 6.4 | 0.00 | 0.00 | 0.00 | 62 | 1013.4 |